Time,TemperatureF,DewpointF,PressureIn,WindDirection,WindDirectionDegrees,WindSpeedMPH,WindSpeedGustMPH,Humidity,HourlyPrecipIn,Conditions,Clouds,dailyrainin,SoftwareType,DateUTC
2013-05-18 00:03:00,67.4,61.0,29.76,SSE,160,6.0,7.0,80,0.00,,,0.00,Wunderground v.1.15,2013-05-18 05:03:00,
2013-05-18 00:08:00,67.3,60.9,29.76,SSE,153,7.0,11.0,80,0.00,,,0.00,Wunderground v.1.15,2013-05-18 05:08:00,
2013-05-18 00:13:00,67.3,60.9,29.76,ESE,115,4.0,10.0,80,0.00,,,0.00,Wunderground v.1.15,2013-05-18 05:13:00,
2013-05-18 00:18:00,67.3,60.6,29.76,South,178,4.0,12.0,79,0.00,,,0.00,Wunderground v.1.15,2013-05-18 05:18:00,
2013-05-18 00:23:00,67.3,60.9,29.76,South,180,11.0,12.0,80,0.00,,,0.00,Wunderground v.1.15,2013-05-18 05:23:00,
2013-05-18 00:29:00,67.3,60.9,29.76,South,181,6.0,12.0,80,0.00,,,0.00,Wunderground v.1.15,2013-05-18 05:29:00,
2013-05-18 00:34:00,67.1,60.7,29.76,SSE,166,10.0,15.0,80,0.00,,,0.00,Wunderground v.1.15,2013-05-18 05:34:00,
2013-05-18 00:39:00,67.1,60.7,29.76,SSE,148,7.0,15.0,80,0.00,,,0.00,Wunderground v.1.15,2013-05-18 05:39:00,
2013-05-18 00:44:00,66.9,60.5,29.76,SSE,158,6.0,8.0,80,0.00,,,0.00,Wunderground v.1.15,2013-05-18 05:44:00,
2013-05-18 00:50:00,66.8,60.8,29.76,South,174,9.0,9.0,81,0.00,,,0.00,Wunderground v.1.15,2013-05-18 05:50:00,
2013-05-18 00:55:00,66.8,60.8,29.76,SSE,148,7.0,10.0,81,0.00,,,0.00,Wunderground v.1.15,2013-05-18 05:55:00,
2013-05-18 01:00:00,66.8,60.4,29.76,South,186,7.0,8.0,80,0.00,,,0.00,Wunderground v.1.15,2013-05-18 06:00:00,
2013-05-18 01:06:00,66.8,60.4,29.76,SSE,162,7.0,12.0,80,0.00,,,0.00,Wunderground v.1.15,2013-05-18 06:06:00,
2013-05-18 01:11:00,66.8,60.4,29.76,SSE,153,5.0,11.0,80,0.00,,,0.00,Wunderground v.1.15,2013-05-18 06:11:00,
2013-05-18 01:17:00,66.8,60.4,29.77,SSW,194,11.0,11.0,80,0.00,,,0.00,Wunderground v.1.15,2013-05-18 06:17:00,
2013-05-18 01:22:00,66.6,60.2,29.77,SSE,164,9.0,11.0,80,0.00,,,0.00,Wunderground v.1.15,2013-05-18 06:22:00,
2013-05-18 01:27:00,66.6,60.6,29.77,South,169,8.0,11.0,81,0.00,,,0.00,Wunderground v.1.15,2013-05-18 06:27:00,
2013-05-18 01:32:00,66.6,60.6,29.77,South,178,12.0,12.0,81,0.00,,,0.00,Wunderground v.1.15,2013-05-18 06:32:00,
2013-05-18 01:37:00,66.4,60.4,29.77,South,184,5.0,12.0,81,0.00,,,0.00,Wunderground v.1.15,2013-05-18 06:37:00,
2013-05-18 01:43:00,66.3,60.3,29.77,South,178,5.0,6.0,81,0.00,,,0.00,Wunderground v.1.15,2013-05-18 06:43:00,
2013-05-18 01:48:00,66.1,60.1,29.78,South,185,7.0,7.0,81,0.00,,,0.00,Wunderground v.1.15,2013-05-18 06:48:00,
2013-05-18 01:53:00,66.1,60.4,29.78,South,182,6.0,6.0,82,0.00,,,0.00,Wunderground v.1.15,2013-05-18 06:53:00,
2013-05-18 01:59:00,66.1,60.1,29.78,South,180,4.0,7.0,81,0.00,,,0.00,Wunderground v.1.15,2013-05-18 06:59:00,
2013-05-18 02:04:00,66.1,60.1,29.78,South,188,6.0,10.0,81,0.00,,,0.00,Wunderground v.1.15,2013-05-18 07:04:00,
2013-05-18 02:09:00,66.0,60.0,29.78,SSE,153,7.0,11.0,81,0.00,,,0.00,Wunderground v.1.15,2013-05-18 07:09:00,
2013-05-18 02:14:00,66.0,60.3,29.78,SSE,163,6.0,10.0,82,0.00,,,0.00,Wunderground v.1.15,2013-05-18 07:14:00,
2013-05-18 02:19:00,65.8,60.2,29.77,South,175,3.0,13.0,82,0.00,,,0.00,Wunderground v.1.15,2013-05-18 07:19:00,
2013-05-18 02:24:00,65.8,60.2,29.77,SSE,167,3.0,8.0,82,0.00,,,0.00,Wunderground v.1.15,2013-05-18 07:24:00,
2013-05-18 02:29:00,65.8,60.2,29.77,SSW,202,6.0,10.0,82,0.00,,,0.00,Wunderground v.1.15,2013-05-18 07:29:00,
2013-05-18 02:34:00,65.8,60.2,29.77,South,189,6.0,11.0,82,0.00,,,0.00,Wunderground v.1.15,2013-05-18 07:34:00,
2013-05-18 02:39:00,65.6,60.0,29.77,SSE,154,13.0,13.0,82,0.00,,,0.00,Wunderground v.1.15,2013-05-18 07:39:00,
2013-05-18 02:44:00,65.6,60.0,29.77,South,173,6.0,9.0,82,0.00,,,0.00,Wunderground v.1.15,2013-05-18 07:44:00,
2013-05-18 02:49:00,65.6,59.6,29.76,South,190,4.0,10.0,81,0.00,,,0.00,Wunderground v.1.15,2013-05-18 07:49:00,
2013-05-18 02:54:00,65.8,59.8,29.76,SSE,163,5.0,11.0,81,0.00,,,0.00,Wunderground v.1.15,2013-05-18 07:54:00,
2013-05-18 02:59:00,65.6,59.6,29.76,South,172,6.0,11.0,81,0.00,,,0.00,Wunderground v.1.15,2013-05-18 07:59:00,
2013-05-18 03:04:00,65.6,59.6,29.75,South,173,4.0,11.0,81,0.00,,,0.00,Wunderground v.1.15,2013-05-18 08:04:00,
2013-05-18 03:09:00,65.5,59.5,29.75,South,173,1.0,11.0,81,0.00,,,0.00,Wunderground v.1.15,2013-05-18 08:09:00,
2013-05-18 03:14:00,65.2,59.6,29.75,SSE,168,8.0,10.0,82,0.00,,,0.00,Wunderground v.1.15,2013-05-18 08:14:00,
2013-05-18 03:19:00,65.2,59.6,29.75,SSE,165,4.0,10.0,82,0.00,,,0.00,Wunderground v.1.15,2013-05-18 08:19:00,
2013-05-18 03:24:00,65.2,59.9,29.75,South,173,6.0,11.0,83,0.00,,,0.00,Wunderground v.1.15,2013-05-18 08:24:00,
2013-05-18 03:29:00,65.0,59.7,29.75,SSE,161,4.0,12.0,83,0.00,,,0.00,Wunderground v.1.15,2013-05-18 08:29:00,
2013-05-18 03:34:00,65.0,59.7,29.76,South,175,4.0,13.0,83,0.00,,,0.00,Wunderground v.1.15,2013-05-18 08:34:00,
2013-05-18 03:39:00,64.8,59.5,29.76,South,180,6.0,13.0,83,0.00,,,0.00,Wunderground v.1.15,2013-05-18 08:39:00,
2013-05-18 03:44:00,64.8,59.9,29.76,South,179,6.0,11.0,84,0.00,,,0.00,Wunderground v.1.15,2013-05-18 08:44:00,
2013-05-18 03:49:00,64.7,59.4,29.76,SSW,192,6.0,12.0,83,0.00,,,0.00,Wunderground v.1.15,2013-05-18 08:49:00,
2013-05-18 03:54:00,64.5,59.6,29.76,South,188,4.0,10.0,84,0.00,,,0.00,Wunderground v.1.15,2013-05-18 08:54:00,
2013-05-18 03:59:00,64.5,59.6,29.76,South,188,7.0,14.0,84,0.00,,,0.00,Wunderground v.1.15,2013-05-18 08:59:00,
2013-05-18 04:04:00,64.5,59.6,29.76,South,175,6.0,10.0,84,0.00,,,0.00,Wunderground v.1.15,2013-05-18 09:04:00,
2013-05-18 04:09:00,64.3,59.4,29.76,South,186,4.0,11.0,84,0.00,,,0.00,Wunderground v.1.15,2013-05-18 09:09:00,
2013-05-18 04:14:00,64.2,59.6,29.76,South,185,7.0,10.0,85,0.00,,,0.00,Wunderground v.1.15,2013-05-18 09:14:00,
2013-05-18 04:19:00,64.0,59.4,29.77,SSW,206,5.0,10.0,85,0.00,,,0.00,Wunderground v.1.15,2013-05-18 09:19:00,
2013-05-18 04:24:00,64.0,59.4,29.77,South,175,8.0,8.0,85,0.00,,,0.00,Wunderground v.1.15,2013-05-18 09:24:00,
2013-05-18 04:29:00,63.9,59.6,29.77,South,174,4.0,8.0,86,0.00,,,0.00,Wunderground v.1.15,2013-05-18 09:29:00,
2013-05-18 04:34:00,63.7,59.4,29.77,South,178,5.0,11.0,86,0.00,,,0.00,Wunderground v.1.15,2013-05-18 09:34:00,
2013-05-18 04:39:00,63.7,59.4,29.77,SSE,166,6.0,11.0,86,0.00,,,0.00,Wunderground v.1.15,2013-05-18 09:39:00,
2013-05-18 04:44:00,63.5,59.2,29.77,South,179,7.0,11.0,86,0.00,,,0.00,Wunderground v.1.15,2013-05-18 09:44:00,
2013-05-18 04:49:00,63.5,59.6,29.77,South,191,6.0,12.0,87,0.00,,,0.00,Wunderground v.1.15,2013-05-18 09:49:00,
2013-05-18 04:54:00,63.4,59.5,29.77,South,174,6.0,9.0,87,0.00,,,0.00,Wunderground v.1.15,2013-05-18 09:54:00,
2013-05-18 04:59:00,63.4,59.5,29.77,South,183,6.0,12.0,87,0.00,,,0.00,Wunderground v.1.15,2013-05-18 09:59:00,
2013-05-18 05:04:00,63.2,59.3,29.76,South,182,2.0,11.0,87,0.00,,,0.00,Wunderground v.1.15,2013-05-18 10:04:00,
2013-05-18 05:09:00,63.2,59.3,29.76,SSE,163,3.0,11.0,87,0.00,,,0.00,Wunderground v.1.15,2013-05-18 10:09:00,
2013-05-18 05:14:00,63.2,59.3,29.76,South,176,5.0,10.0,87,0.00,,,0.00,Wunderground v.1.15,2013-05-18 10:14:00,
2013-05-18 05:19:00,63.2,59.6,29.76,SSE,159,5.0,10.0,88,0.00,,,0.00,Wunderground v.1.15,2013-05-18 10:19:00,
2013-05-18 05:24:00,63.2,59.6,29.76,South,191,7.0,9.0,88,0.00,,,0.00,Wunderground v.1.15,2013-05-18 10:24:00,
2013-05-18 05:29:00,63.1,59.2,29.76,South,180,3.0,9.0,87,0.00,,,0.00,Wunderground v.1.15,2013-05-18 10:29:00,
2013-05-18 05:34:00,63.1,59.5,29.76,South,171,3.0,11.0,88,0.00,,,0.00,Wunderground v.1.15,2013-05-18 10:34:00,
2013-05-18 05:39:00,63.1,59.5,29.76,South,187,4.0,11.0,88,0.00,,,0.00,Wunderground v.1.15,2013-05-18 10:39:00,
2013-05-18 05:45:00,62.9,59.3,29.77,South,170,6.0,8.0,88,0.00,,,0.00,Wunderground v.1.15,2013-05-18 10:45:00,
2013-05-18 05:50:00,62.9,59.3,29.77,SSW,192,4.0,4.0,88,0.00,,,0.00,Wunderground v.1.15,2013-05-18 10:50:00,
2013-05-18 05:55:00,62.9,59.3,29.77,South,183,4.0,6.0,88,0.00,,,0.00,Wunderground v.1.15,2013-05-18 10:55:00,
2013-05-18 06:00:00,62.9,59.3,29.77,South,186,0.0,1.0,88,0.00,,,0.00,Wunderground v.1.15,2013-05-18 11:00:00,
2013-05-18 06:05:00,62.9,59.3,29.77,South,186,0.0,4.0,88,0.00,,,0.00,Wunderground v.1.15,2013-05-18 11:05:00,
2013-05-18 06:10:00,62.7,59.4,29.77,South,189,3.0,4.0,89,0.00,,,0.00,Wunderground v.1.15,2013-05-18 11:10:00,
2013-05-18 06:15:00,62.7,59.4,29.78,South,177,5.0,5.0,89,0.00,,,0.00,Wunderground v.1.15,2013-05-18 11:15:00,
2013-05-18 06:20:00,62.6,59.3,29.78,South,173,0.0,4.0,89,0.00,,,0.00,Wunderground v.1.15,2013-05-18 11:20:00,
2013-05-18 06:25:00,62.7,59.4,29.78,SSE,151,4.0,5.0,89,0.00,,,0.00,Wunderground v.1.15,2013-05-18 11:25:00,
2013-05-18 06:30:00,62.7,59.4,29.79,SSE,168,0.0,4.0,89,0.00,,,0.00,Wunderground v.1.15,2013-05-18 11:30:00,
2013-05-18 06:35:00,62.7,59.4,29.79,South,170,0.0,5.0,89,0.00,,,0.00,Wunderground v.1.15,2013-05-18 11:35:00,
2013-05-18 06:40:00,62.7,59.4,29.79,South,176,0.0,1.0,89,0.00,,,0.00,Wunderground v.1.15,2013-05-18 11:40:00,
2013-05-18 06:45:00,62.7,59.4,29.80,South,175,0.0,5.0,89,0.00,,,0.00,Wunderground v.1.15,2013-05-18 11:45:00,
2013-05-18 06:50:00,62.9,59.6,29.80,South,177,0.0,1.0,89,0.00,,,0.00,Wunderground v.1.15,2013-05-18 11:50:00,
2013-05-18 06:55:00,62.9,59.6,29.80,SSE,165,1.0,5.0,89,0.00,,,0.00,Wunderground v.1.15,2013-05-18 11:55:00,
2013-05-18 07:01:00,62.9,59.3,29.80,SSE,167,3.0,3.0,88,0.00,,,0.00,Wunderground v.1.15,2013-05-18 12:01:00,
2013-05-18 07:06:00,62.9,59.3,29.80,South,180,4.0,6.0,88,0.00,,,0.00,Wunderground v.1.15,2013-05-18 12:06:00,
2013-05-18 07:11:00,62.9,59.3,29.80,South,180,0.0,6.0,88,0.00,,,0.00,Wunderground v.1.15,2013-05-18 12:11:00,
2013-05-18 07:16:00,63.1,59.5,29.81,South,179,0.0,6.0,88,0.00,,,0.00,Wunderground v.1.15,2013-05-18 12:16:00,
2013-05-18 07:21:00,63.1,59.5,29.81,South,175,0.0,2.0,88,0.00,,,0.00,Wunderground v.1.15,2013-05-18 12:21:00,
2013-05-18 07:26:00,63.2,59.6,29.81,South,173,1.0,6.0,88,0.00,,,0.00,Wunderground v.1.15,2013-05-18 12:26:00,
2013-05-18 07:31:00,63.2,59.6,29.81,South,185,4.0,4.0,88,0.00,,,0.00,Wunderground v.1.15,2013-05-18 12:31:00,
2013-05-18 07:36:00,63.4,59.5,29.81,South,190,2.0,7.0,87,0.00,,,0.00,Wunderground v.1.15,2013-05-18 12:36:00,
2013-05-18 07:41:00,63.5,59.6,29.81,South,185,3.0,5.0,87,0.00,,,0.00,Wunderground v.1.15,2013-05-18 12:41:00,
2013-05-18 07:46:00,63.7,59.8,29.80,South,171,6.0,10.0,87,0.00,,,0.00,Wunderground v.1.15,2013-05-18 12:46:00,
2013-05-18 07:51:00,63.9,60.0,29.80,SSE,164,5.0,8.0,87,0.00,,,0.00,Wunderground v.1.15,2013-05-18 12:51:00,
2013-05-18 07:56:00,64.0,59.7,29.80,SE,142,0.0,9.0,86,0.00,,,0.00,Wunderground v.1.15,2013-05-18 12:56:00,
2013-05-18 08:01:00,64.2,59.9,29.80,South,170,2.0,7.0,86,0.00,,,0.00,Wunderground v.1.15,2013-05-18 13:01:00,
2013-05-18 08:06:00,64.3,59.7,29.80,South,188,4.0,9.0,85,0.00,,,0.00,Wunderground v.1.15,2013-05-18 13:06:00,
2013-05-18 08:11:00,64.7,60.1,29.80,SSE,159,0.0,6.0,85,0.00,,,0.00,Wunderground v.1.15,2013-05-18 13:11:00,
2013-05-18 08:16:00,64.8,60.2,29.80,SSE,167,3.0,8.0,85,0.00,,,0.00,Wunderground v.1.15,2013-05-18 13:16:00,
2013-05-18 08:21:00,65.0,60.0,29.80,SSW,199,5.0,7.0,84,0.00,,,0.00,Wunderground v.1.15,2013-05-18 13:21:00,
2013-05-18 08:26:00,65.3,60.3,29.80,South,184,6.0,11.0,84,0.00,,,0.00,Wunderground v.1.15,2013-05-18 13:26:00,
2013-05-18 08:31:00,65.6,60.6,29.80,South,188,3.0,6.0,84,0.00,,,0.00,Wunderground v.1.15,2013-05-18 13:31:00,
2013-05-18 08:36:00,66.0,60.7,29.80,South,183,1.0,7.0,83,0.00,,,0.00,Wunderground v.1.15,2013-05-18 13:36:00,
2013-05-18 08:41:00,66.3,60.6,29.80,South,186,5.0,8.0,82,0.00,,,0.00,Wunderground v.1.15,2013-05-18 13:41:00,
2013-05-18 08:46:00,66.4,60.4,29.80,SE,142,5.0,14.0,81,0.00,,,0.00,Wunderground v.1.15,2013-05-18 13:46:00,
2013-05-18 08:52:00,66.9,60.9,29.80,South,184,0.0,5.0,81,0.00,,,0.00,Wunderground v.1.15,2013-05-18 13:52:00,
2013-05-18 08:57:00,67.3,61.3,29.80,South,179,0.0,7.0,81,0.00,,,0.00,Wunderground v.1.15,2013-05-18 13:57:00,
2013-05-18 09:02:00,67.4,61.0,29.80,South,169,0.0,5.0,80,0.00,,,0.00,Wunderground v.1.15,2013-05-18 14:02:00,
2013-05-18 09:07:00,67.8,61.4,29.80,South,178,5.0,10.0,80,0.00,,,0.00,Wunderground v.1.15,2013-05-18 14:07:00,
2013-05-18 09:12:00,68.1,61.3,29.80,SSE,167,4.0,10.0,79,0.00,,,0.00,Wunderground v.1.15,2013-05-18 14:12:00,
2013-05-18 09:17:00,68.3,61.2,29.80,South,186,5.0,10.0,78,0.00,,,0.00,Wunderground v.1.15,2013-05-18 14:17:00,
2013-05-18 09:22:00,68.6,61.5,29.80,South,186,6.0,11.0,78,0.00,,,0.00,Wunderground v.1.15,2013-05-18 14:22:00,
2013-05-18 09:27:00,68.9,61.4,29.80,South,176,5.0,11.0,77,0.00,,,0.00,Wunderground v.1.15,2013-05-18 14:27:00,
2013-05-18 09:32:00,69.6,62.1,29.80,South,170,0.0,6.0,77,0.00,,,0.00,Wunderground v.1.15,2013-05-18 14:32:00,
2013-05-18 09:37:00,70.3,62.4,29.80,North,360,2.0,10.0,76,0.00,,,0.00,Wunderground v.1.15,2013-05-18 14:37:00,
2013-05-18 09:42:00,70.6,62.7,29.80,North,360,1.0,5.0,76,0.00,,,0.00,Wunderground v.1.15,2013-05-18 14:42:00,
2013-05-18 09:47:00,71.1,62.4,29.79,North,360,4.0,9.0,74,0.00,,,0.00,Wunderground v.1.15,2013-05-18 14:47:00,
2013-05-18 09:52:00,71.1,62.0,29.79,South,190,5.0,13.0,73,0.00,,,0.00,Wunderground v.1.15,2013-05-18 14:52:00,
2013-05-18 09:57:00,71.6,62.5,29.79,South,180,4.0,13.0,73,0.00,,,0.00,Wunderground v.1.15,2013-05-18 14:57:00,
2013-05-18 10:02:00,71.8,61.9,29.79,SW,225,3.0,11.0,71,0.00,,,0.00,Wunderground v.1.15,2013-05-18 15:02:00,
2013-05-18 10:07:00,72.3,62.8,29.79,North,360,5.0,13.0,72,0.00,,,0.00,Wunderground v.1.15,2013-05-18 15:07:00,
2013-05-18 10:12:00,72.7,62.8,29.79,North,360,2.0,7.0,71,0.00,,,0.00,Wunderground v.1.15,2013-05-18 15:12:00,
2013-05-18 10:17:00,72.7,62.8,29.79,SSW,204,2.0,15.0,71,0.00,,,0.00,Wunderground v.1.15,2013-05-18 15:17:00,
2013-05-18 10:22:00,73.0,62.6,29.79,South,190,1.0,9.0,70,0.00,,,0.00,Wunderground v.1.15,2013-05-18 15:22:00,
2013-05-18 10:27:00,73.2,62.8,29.79,SSW,192,3.0,10.0,70,0.00,,,0.00,Wunderground v.1.15,2013-05-18 15:27:00,
2013-05-18 10:32:00,73.7,63.3,29.78,South,188,3.0,5.0,70,0.00,,,0.00,Wunderground v.1.15,2013-05-18 15:32:00,
2013-05-18 10:37:00,73.7,62.9,29.78,South,190,2.0,9.0,69,0.00,,,0.00,Wunderground v.1.15,2013-05-18 15:37:00,
2013-05-18 10:42:00,74.0,63.2,29.78,South,174,4.0,7.0,69,0.00,,,0.00,Wunderground v.1.15,2013-05-18 15:42:00,
2013-05-18 10:47:00,73.9,63.1,29.78,SSE,163,4.0,11.0,69,0.00,,,0.00,Wunderground v.1.15,2013-05-18 15:47:00,
2013-05-18 10:52:00,73.9,62.7,29.78,South,178,13.0,13.0,68,0.00,,,0.00,Wunderground v.1.15,2013-05-18 15:52:00,
2013-05-18 10:57:00,74.0,62.8,29.78,South,184,3.0,13.0,68,0.00,,,0.00,Wunderground v.1.15,2013-05-18 15:57:00,
2013-05-18 11:02:00,74.4,63.1,29.77,South,186,2.0,9.0,68,0.00,,,0.00,Wunderground v.1.15,2013-05-18 16:02:00,
2013-05-18 11:07:00,74.9,63.6,29.77,South,190,3.0,12.0,68,0.00,,,0.00,Wunderground v.1.15,2013-05-18 16:07:00,
2013-05-18 11:12:00,75.1,63.0,29.77,SSE,157,7.0,12.0,66,0.00,,,0.00,Wunderground v.1.15,2013-05-18 16:12:00,
2013-05-18 11:17:00,75.4,63.7,29.77,SSW,202,3.0,12.0,67,0.00,,,0.00,Wunderground v.1.15,2013-05-18 16:17:00,
2013-05-18 11:22:00,75.8,63.2,29.77,SE,144,4.0,10.0,65,0.00,,,0.00,Wunderground v.1.15,2013-05-18 16:22:00,
2013-05-18 11:27:00,75.4,62.8,29.77,South,180,7.0,11.0,65,0.00,,,0.00,Wunderground v.1.15,2013-05-18 16:27:00,
2013-05-18 11:32:00,75.8,62.8,29.77,South,183,6.0,7.0,64,0.00,,,0.00,Wunderground v.1.15,2013-05-18 16:32:00,
2013-05-18 11:37:00,76.5,63.4,29.77,South,180,4.0,11.0,64,0.00,,,0.00,Wunderground v.1.15,2013-05-18 16:37:00,
2013-05-18 11:42:00,76.7,62.7,29.77,North,360,3.0,10.0,62,0.00,,,0.00,Wunderground v.1.15,2013-05-18 16:42:00,
2013-05-18 11:47:00,77.0,63.4,29.75,North,360,2.0,10.0,63,0.00,,,0.00,Wunderground v.1.15,2013-05-18 16:47:00,
2013-05-18 11:52:00,77.4,62.9,29.75,North,360,4.0,7.0,61,0.00,,,0.00,Wunderground v.1.15,2013-05-18 16:52:00,
2013-05-18 11:57:00,76.8,62.3,29.75,SSW,195,5.0,14.0,61,0.00,,,0.00,Wunderground v.1.15,2013-05-18 16:57:00,
2013-05-18 12:02:00,76.7,62.7,29.75,South,191,3.0,11.0,62,0.00,,,0.00,Wunderground v.1.15,2013-05-18 17:02:00,
2013-05-18 12:07:00,77.2,63.2,29.75,South,184,7.0,11.0,62,0.00,,,0.00,Wunderground v.1.15,2013-05-18 17:07:00,
2013-05-18 12:12:00,76.8,62.3,29.75,SE,145,5.0,11.0,61,0.00,,,0.00,Wunderground v.1.15,2013-05-18 17:12:00,
2013-05-18 12:17:00,77.0,62.0,29.75,South,178,10.0,13.0,60,0.00,,,0.00,Wunderground v.1.15,2013-05-18 17:17:00,
2013-05-18 12:22:00,77.0,62.0,29.75,South,183,3.0,13.0,60,0.00,,,0.00,Wunderground v.1.15,2013-05-18 17:22:00,
2013-05-18 12:28:00,77.7,61.3,29.75,South,179,11.0,13.0,57,0.00,,,0.00,Wunderground v.1.15,2013-05-18 17:28:00,
2013-05-18 12:33:00,77.6,62.1,29.75,South,180,5.0,10.0,59,0.00,,,0.00,Wunderground v.1.15,2013-05-18 17:33:00,
2013-05-18 12:38:00,77.4,61.0,29.75,South,176,5.0,12.0,57,0.00,,,0.00,Wunderground v.1.15,2013-05-18 17:38:00,
2013-05-18 12:43:00,77.9,61.9,29.75,South,184,10.0,11.0,58,0.00,,,0.00,Wunderground v.1.15,2013-05-18 17:43:00,
2013-05-18 12:48:00,77.9,60.9,29.74,SSW,211,10.0,14.0,56,0.00,,,0.00,Wunderground v.1.15,2013-05-18 17:48:00,
2013-05-18 12:53:00,78.5,61.0,29.74,South,189,7.0,14.0,55,0.00,,,0.00,Wunderground v.1.15,2013-05-18 17:53:00,
2013-05-18 12:58:00,78.5,61.5,29.74,SE,142,5.0,14.0,56,0.00,,,0.00,Wunderground v.1.15,2013-05-18 17:58:00,
2013-05-18 13:03:00,79.0,60.4,29.73,South,184,6.0,14.0,53,0.00,,,0.00,Wunderground v.1.15,2013-05-18 18:03:00,
2013-05-18 13:08:00,79.0,61.5,29.73,SE,126,0.0,14.0,55,0.00,,,0.00,Wunderground v.1.15,2013-05-18 18:08:00,
2013-05-18 13:13:00,79.0,59.9,29.73,ESE,113,6.0,17.0,52,0.00,,,0.00,Wunderground v.1.15,2013-05-18 18:13:00,
2013-05-18 13:18:00,78.8,61.3,29.72,SE,129,5.0,17.0,55,0.00,,,0.00,Wunderground v.1.15,2013-05-18 18:18:00,
2013-05-18 13:23:00,78.8,61.3,29.72,SSE,153,6.0,13.0,55,0.00,,,0.00,Wunderground v.1.15,2013-05-18 18:23:00,
2013-05-18 13:28:00,78.8,61.8,29.72,SSW,198,5.0,13.0,56,0.00,,,0.00,Wunderground v.1.15,2013-05-18 18:28:00,
2013-05-18 13:33:00,78.5,62.0,29.72,South,172,6.0,17.0,57,0.00,,,0.00,Wunderground v.1.15,2013-05-18 18:33:00,
2013-05-18 13:38:00,78.8,61.8,29.72,ESE,105,4.0,17.0,56,0.00,,,0.00,Wunderground v.1.15,2013-05-18 18:38:00,
2013-05-18 13:43:00,78.8,60.2,29.72,South,179,7.0,18.0,53,0.00,,,0.00,Wunderground v.1.15,2013-05-18 18:43:00,
2013-05-18 13:49:00,78.8,60.7,29.72,South,187,12.0,18.0,54,0.00,,,0.00,Wunderground v.1.15,2013-05-18 18:49:00,
2013-05-18 13:54:00,78.8,60.7,29.72,SSE,161,8.0,13.0,54,0.00,,,0.00,Wunderground v.1.15,2013-05-18 18:54:00,
2013-05-18 13:59:00,79.4,60.8,29.72,SE,139,9.0,13.0,53,0.00,,,0.00,Wunderground v.1.15,2013-05-18 18:59:00,
2013-05-18 14:04:00,79.9,60.7,29.72,North,360,4.0,9.0,52,0.00,,,0.00,Wunderground v.1.15,2013-05-18 19:04:00,
2013-05-18 14:09:00,79.2,60.1,29.72,SSW,197,7.0,16.0,52,0.00,,,0.00,Wunderground v.1.15,2013-05-18 19:09:00,
2013-05-18 14:14:00,79.4,60.8,29.72,SSE,153,10.0,15.0,53,0.00,,,0.00,Wunderground v.1.15,2013-05-18 19:14:00,
2013-05-18 14:19:00,79.4,61.3,29.71,South,173,4.0,23.0,54,0.00,,,0.00,Wunderground v.1.15,2013-05-18 19:19:00,
2013-05-18 14:24:00,79.6,61.0,29.71,ESE,123,3.0,15.0,53,0.00,,,0.00,Wunderground v.1.15,2013-05-18 19:24:00,
2013-05-18 14:29:00,79.2,60.1,29.71,SSE,164,4.0,15.0,52,0.00,,,0.00,Wunderground v.1.15,2013-05-18 19:29:00,
2013-05-18 14:34:00,79.0,60.4,29.72,ESE,115,1.0,15.0,53,0.00,,,0.00,Wunderground v.1.15,2013-05-18 19:34:00,
2013-05-18 14:39:00,79.2,60.6,29.72,SE,144,3.0,16.0,53,0.00,,,0.00,Wunderground v.1.15,2013-05-18 19:39:00,
2013-05-18 14:44:00,79.6,61.0,29.72,SSE,165,7.0,12.0,53,0.00,,,0.00,Wunderground v.1.15,2013-05-18 19:44:00,
2013-05-18 14:49:00,79.8,60.1,29.70,North,360,11.0,15.0,51,0.00,,,0.00,Wunderground v.1.15,2013-05-18 19:49:00,
2013-05-18 14:54:00,79.6,60.4,29.70,South,182,2.0,14.0,52,0.00,,,0.00,Wunderground v.1.15,2013-05-18 19:54:00,
2013-05-18 14:59:00,79.8,60.6,29.70,South,169,7.0,14.0,52,0.00,,,0.00,Wunderground v.1.15,2013-05-18 19:59:00,
2013-05-18 15:04:00,80.1,60.9,29.70,SSE,167,11.0,17.0,52,0.00,,,0.00,Wunderground v.1.15,2013-05-18 20:04:00,
2013-05-18 15:09:00,79.6,60.4,29.70,South,175,7.0,17.0,52,0.00,,,0.00,Wunderground v.1.15,2013-05-18 20:09:00,
2013-05-18 15:14:00,79.8,60.6,29.70,South,169,3.0,14.0,52,0.00,,,0.00,Wunderground v.1.15,2013-05-18 20:14:00,
2013-05-18 15:19:00,79.8,61.1,29.70,South,184,10.0,15.0,53,0.00,,,0.00,Wunderground v.1.15,2013-05-18 20:19:00,
2013-05-18 15:24:00,79.6,61.0,29.70,SE,126,4.0,12.0,53,0.00,,,0.00,Wunderground v.1.15,2013-05-18 20:24:00,
2013-05-18 15:29:00,79.9,60.2,29.70,North,360,2.0,5.0,51,0.00,,,0.00,Wunderground v.1.15,2013-05-18 20:29:00,
2013-05-18 15:34:00,79.6,59.9,29.70,SSE,163,1.0,16.0,51,0.00,,,0.00,Wunderground v.1.15,2013-05-18 20:34:00,
2013-05-18 15:39:00,79.4,60.2,29.70,East,82,4.0,6.0,52,0.00,,,0.00,Wunderground v.1.15,2013-05-18 20:39:00,
2013-05-18 15:44:00,79.6,60.4,29.70,SE,144,9.0,12.0,52,0.00,,,0.00,Wunderground v.1.15,2013-05-18 20:44:00,
2013-05-18 15:49:00,79.8,60.6,29.70,SSE,155,2.0,6.0,52,0.00,,,0.00,Wunderground v.1.15,2013-05-18 20:49:00,
2013-05-18 15:55:00,80.3,60.0,29.70,SSE,168,3.0,18.0,50,0.00,,,0.00,Wunderground v.1.15,2013-05-18 20:55:00,
2013-05-18 16:00:00,80.7,60.9,29.69,ESE,102,4.0,6.0,51,0.00,,,0.00,Wunderground v.1.15,2013-05-18 21:00:00,
2013-05-18 16:05:00,80.3,60.5,29.69,SE,126,9.0,15.0,51,0.00,,,0.00,Wunderground v.1.15,2013-05-18 21:05:00,
2013-05-18 16:10:00,80.5,60.1,29.69,SE,138,6.0,7.0,50,0.00,,,0.00,Wunderground v.1.15,2013-05-18 21:10:00,
2013-05-18 16:15:00,80.5,61.3,29.69,South,171,6.0,19.0,52,0.00,,,0.00,Wunderground v.1.15,2013-05-18 21:15:00,
2013-05-18 16:20:00,80.7,60.3,29.69,SSE,168,9.0,10.0,50,0.00,,,0.00,Wunderground v.1.15,2013-05-18 21:20:00,
2013-05-18 16:25:00,80.5,60.1,29.69,SSE,161,10.0,13.0,50,0.00,,,0.00,Wunderground v.1.15,2013-05-18 21:25:00,
2013-05-18 16:30:00,80.3,61.1,29.69,SE,127,12.0,12.0,52,0.00,,,0.00,Wunderground v.1.15,2013-05-18 21:30:00,
2013-05-18 16:35:00,80.1,60.3,29.69,SSW,193,8.0,13.0,51,0.00,,,0.00,Wunderground v.1.15,2013-05-18 21:35:00,
2013-05-18 16:40:00,80.3,60.0,29.69,SSE,161,10.0,15.0,50,0.00,,,0.00,Wunderground v.1.15,2013-05-18 21:40:00,
2013-05-18 16:45:00,80.7,60.3,29.69,SSE,164,5.0,15.0,50,0.00,,,0.00,Wunderground v.1.15,2013-05-18 21:45:00,
2013-05-18 16:50:00,80.7,60.3,29.69,South,178,3.0,9.0,50,0.00,,,0.00,Wunderground v.1.15,2013-05-18 21:50:00,
2013-05-18 16:55:00,81.1,59.6,29.69,South,178,8.0,15.0,48,0.00,,,0.00,Wunderground v.1.15,2013-05-18 21:55:00,
2013-05-18 17:00:00,81.1,58.4,29.69,South,180,11.0,12.0,46,0.00,,,0.00,Wunderground v.1.15,2013-05-18 22:00:00,
2013-05-18 17:05:00,81.1,59.0,29.69,SSE,152,11.0,15.0,47,0.00,,,0.00,Wunderground v.1.15,2013-05-18 22:05:00,
2013-05-18 17:10:00,81.1,58.4,29.69,SSE,167,3.0,10.0,46,0.00,,,0.00,Wunderground v.1.15,2013-05-18 22:10:00,
2013-05-18 17:15:00,80.7,58.6,29.69,SSE,150,5.0,15.0,47,0.00,,,0.00,Wunderground v.1.15,2013-05-18 22:15:00,
2013-05-18 17:20:00,81.2,58.5,29.69,South,175,10.0,11.0,46,0.00,,,0.00,Wunderground v.1.15,2013-05-18 22:20:00,
2013-05-18 17:25:00,81.8,59.0,29.69,South,173,6.0,15.0,46,0.00,,,0.00,Wunderground v.1.15,2013-05-18 22:25:00,
2013-05-18 17:30:00,81.8,59.6,29.69,South,169,12.0,16.0,47,0.00,,,0.00,Wunderground v.1.15,2013-05-18 22:30:00,
2013-05-18 17:35:00,81.8,59.0,29.69,South,169,8.0,16.0,46,0.00,,,0.00,Wunderground v.1.15,2013-05-18 22:35:00,
2013-05-18 17:40:00,81.4,58.6,29.69,South,182,7.0,9.0,46,0.00,,,0.00,Wunderground v.1.15,2013-05-18 22:40:00,
2013-05-18 17:45:00,81.4,58.6,29.69,South,175,11.0,17.0,46,0.00,,,0.00,Wunderground v.1.15,2013-05-18 22:45:00,
2013-05-18 17:50:00,81.2,59.1,29.69,SSE,161,10.0,10.0,47,0.00,,,0.00,Wunderground v.1.15,2013-05-18 22:50:00,
2013-05-18 17:55:00,80.9,59.4,29.69,SSE,163,3.0,12.0,48,0.00,,,0.00,Wunderground v.1.15,2013-05-18 22:55:00,
2013-05-18 18:00:00,81.1,59.0,29.68,South,170,4.0,6.0,47,0.00,,,0.00,Wunderground v.1.15,2013-05-18 23:00:00,
2013-05-18 18:05:00,81.4,59.8,29.68,SSW,193,3.0,10.0,48,0.00,,,0.00,Wunderground v.1.15,2013-05-18 23:05:00,
2013-05-18 18:10:00,81.8,59.0,29.68,SSE,164,4.0,9.0,46,0.00,,,0.00,Wunderground v.1.15,2013-05-18 23:10:00,
2013-05-18 18:15:00,81.6,58.2,29.68,SSW,194,10.0,14.0,45,0.00,,,0.00,Wunderground v.1.15,2013-05-18 23:15:00,
2013-05-18 18:21:00,81.1,58.4,29.68,SSW,193,6.0,10.0,46,0.00,,,0.00,Wunderground v.1.15,2013-05-18 23:21:00,
2013-05-18 18:26:00,80.7,58.6,29.68,SSE,163,3.0,16.0,47,0.00,,,0.00,Wunderground v.1.15,2013-05-18 23:26:00,
2013-05-18 18:31:00,80.7,59.2,29.67,South,173,7.0,13.0,48,0.00,,,0.00,Wunderground v.1.15,2013-05-18 23:31:00,
2013-05-18 18:36:00,80.5,59.0,29.67,South,170,9.0,13.0,48,0.00,,,0.00,Wunderground v.1.15,2013-05-18 23:36:00,
2013-05-18 18:41:00,80.5,59.0,29.67,South,184,3.0,10.0,48,0.00,,,0.00,Wunderground v.1.15,2013-05-18 23:41:00,
2013-05-18 18:46:00,80.3,58.8,29.67,South,171,10.0,15.0,48,0.00,,,0.00,Wunderground v.1.15,2013-05-18 23:46:00,
2013-05-18 18:51:00,80.3,59.4,29.67,SSE,159,7.0,12.0,49,0.00,,,0.00,Wunderground v.1.15,2013-05-18 23:51:00,
2013-05-18 18:56:00,80.1,59.2,29.67,South,190,6.0,12.0,49,0.00,,,0.00,Wunderground v.1.15,2013-05-18 23:56:00,
2013-05-18 19:01:00,80.1,59.2,29.66,SSE,167,4.0,8.0,49,0.00,,,0.00,Wunderground v.1.15,2013-05-19 00:01:00,
2013-05-18 19:06:00,80.1,59.8,29.66,SSE,165,2.0,10.0,50,0.00,,,0.00,Wunderground v.1.15,2013-05-19 00:06:00,
2013-05-18 19:11:00,80.5,59.6,29.66,South,180,14.0,14.0,49,0.00,,,0.00,Wunderground v.1.15,2013-05-19 00:11:00,
2013-05-18 19:16:00,80.7,59.8,29.65,South,171,5.0,14.0,49,0.00,,,0.00,Wunderground v.1.15,2013-05-19 00:16:00,
2013-05-18 19:21:00,80.7,59.8,29.65,SSE,164,6.0,6.0,49,0.00,,,0.00,Wunderground v.1.15,2013-05-19 00:21:00,
2013-05-18 19:26:00,80.7,59.8,29.65,SSE,167,4.0,10.0,49,0.00,,,0.00,Wunderground v.1.15,2013-05-19 00:26:00,
2013-05-18 19:31:00,80.5,59.6,29.64,SSE,149,1.0,11.0,49,0.00,,,0.00,Wunderground v.1.15,2013-05-19 00:31:00,
2013-05-18 19:36:00,80.3,59.4,29.64,SSE,154,4.0,11.0,49,0.00,,,0.00,Wunderground v.1.15,2013-05-19 00:36:00,
2013-05-18 19:41:00,80.1,59.8,29.64,South,177,0.0,5.0,50,0.00,,,0.00,Wunderground v.1.15,2013-05-19 00:41:00,
2013-05-18 19:46:00,79.9,60.2,29.64,SSE,153,2.0,11.0,51,0.00,,,0.00,Wunderground v.1.15,2013-05-19 00:46:00,
2013-05-18 19:51:00,79.8,60.6,29.64,SE,139,2.0,4.0,52,0.00,,,0.00,Wunderground v.1.15,2013-05-19 00:51:00,
2013-05-18 19:56:00,79.6,60.4,29.64,SSE,167,0.0,6.0,52,0.00,,,0.00,Wunderground v.1.15,2013-05-19 00:56:00,
2013-05-18 20:01:00,79.4,60.8,29.64,SSE,162,0.0,2.0,53,0.00,,,0.00,Wunderground v.1.15,2013-05-19 01:01:00,
2013-05-18 20:06:00,79.0,60.4,29.64,SSE,147,4.0,5.0,53,0.00,,,0.00,Wunderground v.1.15,2013-05-19 01:06:00,
2013-05-18 20:11:00,78.6,60.6,29.64,ESE,121,6.0,6.0,54,0.00,,,0.00,Wunderground v.1.15,2013-05-19 01:11:00,
2013-05-18 20:16:00,78.5,61.0,29.62,SSE,152,6.0,7.0,55,0.00,,,0.00,Wunderground v.1.15,2013-05-19 01:16:00,
2013-05-18 20:21:00,78.1,61.1,29.62,ESE,109,1.0,3.0,56,0.00,,,0.00,Wunderground v.1.15,2013-05-19 01:21:00,
2013-05-18 20:26:00,77.9,60.9,29.62,ESE,111,4.0,10.0,56,0.00,,,0.00,Wunderground v.1.15,2013-05-19 01:26:00,
2013-05-18 20:31:00,77.6,61.7,29.62,ESE,114,0.0,5.0,58,0.00,,,0.00,Wunderground v.1.15,2013-05-19 01:31:00,
2013-05-18 20:36:00,77.2,61.8,29.62,ESE,115,4.0,13.0,59,0.00,,,0.00,Wunderground v.1.15,2013-05-19 01:36:00,
2013-05-18 20:41:00,77.0,61.6,29.62,SE,142,0.0,6.0,59,0.00,,,0.00,Wunderground v.1.15,2013-05-19 01:41:00,
2013-05-18 20:46:00,76.7,61.8,29.62,ESE,106,2.0,7.0,60,0.00,,,0.00,Wunderground v.1.15,2013-05-19 01:46:00,
2013-05-18 20:51:00,76.3,61.4,29.62,ESE,115,2.0,7.0,60,0.00,,,0.00,Wunderground v.1.15,2013-05-19 01:51:00,
2013-05-18 20:56:00,76.1,61.7,29.62,ESE,109,1.0,7.0,61,0.00,,,0.00,Wunderground v.1.15,2013-05-19 01:56:00,
2013-05-18 21:01:00,75.8,61.8,29.63,ESE,106,4.0,6.0,62,0.00,,,0.00,Wunderground v.1.15,2013-05-19 02:01:00,
2013-05-18 21:06:00,75.4,61.5,29.63,ESE,112,0.0,9.0,62,0.00,,,0.00,Wunderground v.1.15,2013-05-19 02:06:00,
2013-05-18 21:11:00,75.3,61.8,29.63,SE,132,3.0,6.0,63,0.00,,,0.00,Wunderground v.1.15,2013-05-19 02:11:00,
2013-05-18 21:17:00,75.1,61.6,29.64,South,169,6.0,7.0,63,0.00,,,0.00,Wunderground v.1.15,2013-05-19 02:17:00,
2013-05-18 21:22:00,74.9,61.5,29.64,SSE,158,3.0,6.0,63,0.00,,,0.00,Wunderground v.1.15,2013-05-19 02:22:00,
2013-05-18 21:27:00,74.7,61.7,29.64,South,170,7.0,10.0,64,0.00,,,0.00,Wunderground v.1.15,2013-05-19 02:27:00,
2013-05-18 21:32:00,74.6,61.6,29.64,SSE,156,4.0,6.0,64,0.00,,,0.00,Wunderground v.1.15,2013-05-19 02:32:00,
2013-05-18 21:37:00,74.4,61.4,29.64,SE,138,7.0,12.0,64,0.00,,,0.00,Wunderground v.1.15,2013-05-19 02:37:00,
2013-05-18 21:42:00,74.4,61.4,29.64,South,171,3.0,12.0,64,0.00,,,0.00,Wunderground v.1.15,2013-05-19 02:42:00,
2013-05-18 21:47:00,74.2,61.2,29.64,SSE,148,6.0,12.0,64,0.00,,,0.00,Wunderground v.1.15,2013-05-19 02:47:00,
2013-05-18 21:52:00,74.0,61.5,29.64,South,173,4.0,7.0,65,0.00,,,0.00,Wunderground v.1.15,2013-05-19 02:52:00,
2013-05-18 21:57:00,74.0,61.5,29.64,SSE,163,12.0,12.0,65,0.00,,,0.00,Wunderground v.1.15,2013-05-19 02:57:00,
2013-05-18 22:02:00,74.0,61.5,29.63,SSE,161,5.0,10.0,65,0.00,,,0.00,Wunderground v.1.15,2013-05-19 03:02:00,
2013-05-18 22:07:00,73.9,61.4,29.63,South,174,4.0,10.0,65,0.00,,,0.00,Wunderground v.1.15,2013-05-19 03:07:00,
2013-05-18 22:12:00,73.9,61.4,29.63,SSE,153,6.0,9.0,65,0.00,,,0.00,Wunderground v.1.15,2013-05-19 03:12:00,
2013-05-18 22:17:00,73.7,61.6,29.62,SSE,164,5.0,10.0,66,0.00,,,0.00,Wunderground v.1.15,2013-05-19 03:17:00,
2013-05-18 22:22:00,73.5,61.4,29.62,SSE,161,12.0,13.0,66,0.00,,,0.00,Wunderground v.1.15,2013-05-19 03:22:00,
2013-05-18 22:27:00,73.5,61.9,29.62,SSE,157,0.0,13.0,67,0.00,,,0.00,Wunderground v.1.15,2013-05-19 03:27:00,
2013-05-18 22:32:00,73.2,61.6,29.62,South,169,4.0,11.0,67,0.00,,,0.00,Wunderground v.1.15,2013-05-19 03:32:00,
2013-05-18 22:37:00,73.0,61.8,29.62,SE,125,3.0,11.0,68,0.00,,,0.00,Wunderground v.1.15,2013-05-19 03:37:00,
2013-05-18 22:42:00,72.8,61.6,29.62,ESE,116,2.0,13.0,68,0.00,,,0.00,Wunderground v.1.15,2013-05-19 03:42:00,
2013-05-18 22:47:00,72.7,61.5,29.62,SSE,148,2.0,13.0,68,0.00,,,0.00,Wunderground v.1.15,2013-05-19 03:47:00,
2013-05-18 22:52:00,72.3,61.6,29.62,SE,125,4.0,17.0,69,0.00,,,0.00,Wunderground v.1.15,2013-05-19 03:52:00,
2013-05-18 22:57:00,72.1,61.8,29.62,SSE,157,4.0,17.0,70,0.00,,,0.00,Wunderground v.1.15,2013-05-19 03:57:00,
2013-05-18 23:01:00,72.0,61.7,29.61,South,176,6.0,6.0,70,0.00,,,0.00,Wunderground v.1.15,2013-05-19 04:01:00,
2013-05-18 23:06:00,72.0,61.7,29.61,SE,140,2.0,12.0,70,0.00,,,0.00,Wunderground v.1.15,2013-05-19 04:06:00,
2013-05-18 23:09:00,72.0,61.7,29.61,SSE,150,2.0,13.0,70,0.00,,,0.00,Wunderground v.1.15,2013-05-19 04:09:00,
2013-05-18 23:12:00,72.0,61.7,29.61,SSE,153,5.0,12.0,70,0.00,,,0.00,Wunderground v.1.15,2013-05-19 04:12:00,
2013-05-18 23:13:00,72.0,62.1,29.61,South,170,7.0,12.0,71,0.00,,,0.00,Wunderground v.1.15,2013-05-19 04:13:00,
2013-05-18 23:18:00,72.0,62.1,29.60,SE,134,4.0,14.0,71,0.00,,,0.00,Wunderground v.1.15,2013-05-19 04:18:00,
2013-05-18 23:23:00,72.0,62.1,29.60,South,171,9.0,13.0,71,0.00,,,0.00,Wunderground v.1.15,2013-05-19 04:23:00,
2013-05-18 23:28:00,72.0,62.1,29.60,SSW,201,4.0,13.0,71,0.00,,,0.00,Wunderground v.1.15,2013-05-19 04:28:00,
2013-05-18 23:29:00,72.0,62.1,29.60,South,172,6.0,13.0,71,0.00,,,0.00,Wunderground v.1.15,2013-05-19 04:29:00,
2013-05-18 23:34:00,71.8,61.9,29.60,South,178,6.0,17.0,71,0.00,,,0.00,Wunderground v.1.15,2013-05-19 04:34:00,
2013-05-18 23:39:00,72.0,62.1,29.60,SSE,150,7.0,17.0,71,0.00,,,0.00,Wunderground v.1.15,2013-05-19 04:39:00,
2013-05-18 23:44:00,72.0,62.1,29.60,SSE,159,7.0,14.0,71,0.00,,,0.00,Wunderground v.1.15,2013-05-19 04:44:00,
2013-05-18 23:49:00,72.0,62.1,29.60,SSE,167,9.0,14.0,71,0.00,,,0.00,Wunderground v.1.15,2013-05-19 04:49:00,
2013-05-18 23:54:00,71.8,61.9,29.60,SSE,156,6.0,14.0,71,0.00,,,0.00,Wunderground v.1.15,2013-05-19 04:54:00,